THY141 LTFM-LTAJ

Flight info

Callsign THY141
Flight time 1h 16m
Altitude 35000
Route VICEN1D/35L VICEN UT57 VEVUD UT341 BAG UL605 RATSI UA17 ASBOM
Aircraft A321/M-SDE3FGHIRWY/LB1

Departure

Time 2026-05-01 11:55
Airport İstanbul Airport (LTFM)

Arrival

Time 2026-05-01 13:11
Airport Gaziantep Oğuzeli International Airport (LTAJ)
Time Latitude Longitude Altitude Speed Heading
2026-05-01 11:25 41.26339 28.73577 331 ft 0 kts 71°
2026-05-01 11:45 41.26337 28.73572 334 ft 3 kts 71°
2026-05-01 11:45 41.26329 28.73538 333 ft 4 kts 71°
2026-05-01 11:45 41.26321 28.73511 331 ft 4 kts 77°
2026-05-01 11:45 41.26322 28.73483 331 ft 4 kts 141°
2026-05-01 11:46 41.26344 28.73469 330 ft 4 kts 161°
2026-05-01 11:46 41.26350 28.73467 330 ft 0 kts 161°
2026-05-01 11:49 41.26344 28.73470 329 ft 2 kts 161°
2026-05-01 11:49 41.26327 28.73477 330 ft 3 kts 161°
2026-05-01 11:49 41.26301 28.73489 332 ft 5 kts 161°
2026-05-01 11:50 41.26264 28.73499 331 ft 6 kts 181°
2026-05-01 11:50 41.26229 28.73466 333 ft 7 kts 239°
2026-05-01 11:50 41.26220 28.73397 332 ft 8 kts 266°
2026-05-01 11:50 41.26218 28.73318 331 ft 9 kts 270°
2026-05-01 11:51 41.26218 28.73228 334 ft 10 kts 270°
2026-05-01 11:51 41.26218 28.73129 331 ft 11 kts 270°
2026-05-01 11:51 41.26217 28.73026 331 ft 11 kts 270°
2026-05-01 11:51 41.26217 28.73003 332 ft 0 kts 270°
2026-05-01 11:52 41.26217 28.73002 332 ft 1 kts 270°
2026-05-01 11:52 41.26217 28.72990 332 ft 2 kts 267°
2026-05-01 11:52 41.26216 28.72965 333 ft 3 kts 266°
2026-05-01 11:52 41.26214 28.72927 334 ft 5 kts 266°
2026-05-01 11:53 41.26212 28.72873 334 ft 7 kts 268°
2026-05-01 11:53 41.26212 28.72806 334 ft 8 kts 270°
2026-05-01 11:53 41.26212 28.72729 334 ft 9 kts 269°
2026-05-01 11:53 41.26211 28.72643 334 ft 10 kts 269°
2026-05-01 11:54 41.26220 28.72552 333 ft 10 kts 298°
2026-05-01 11:54 41.26284 28.72522 329 ft 11 kts 356°
2026-05-01 11:54 41.26495 28.72519 332 ft 63 kts 359°
2026-05-01 11:54 41.27158 28.72501 331 ft 125 kts 359°
2026-05-01 11:55 41.28186 28.72472 433 ft 163 kts
2026-05-01 11:55 41.29301 28.72419 1262 ft 157 kts
2026-05-01 11:55 41.30409 28.72395 1944 ft 165 kts
2026-05-01 11:55 41.31630 28.72415 2295 ft 186 kts
2026-05-01 11:56 41.33012 28.72449 2568 ft 210 kts
2026-05-01 11:56 41.34546 28.72484 2903 ft 229 kts
2026-05-01 11:56 41.36158 28.72508 3592 ft 234 kts
2026-05-01 11:56 41.37752 28.71925 4302 ft 249 kts 330°
2026-05-01 11:57 41.38858 28.70080 4989 ft 269 kts 295°
2026-05-01 11:57 41.39119 28.67554 5690 ft 282 kts 272°
2026-05-01 11:57 41.38928 28.64941 6458 ft 285 kts 265°
2026-05-01 11:57 41.38628 28.62313 7170 ft 288 kts 264°
2026-05-01 11:58 41.38252 28.59690 7851 ft 294 kts 251°
2026-05-01 11:58 41.37189 28.57380 8596 ft 296 kts 227°
2026-05-01 11:58 41.33586 28.55122 10204 ft 295 kts 183°
2026-05-01 11:59 41.31477 28.55093 10437 ft 314 kts 181°
2026-05-01 11:59 41.29218 28.55138 10572 ft 334 kts 178°
2026-05-01 11:59 41.26865 28.55619 10789 ft 350 kts 165°
2026-05-01 12:00 41.22457 28.58556 11788 ft 364 kts 142°
2026-05-01 12:00 41.20589 28.60857 12358 ft 368 kts 136°
2026-05-01 12:00 41.16848 28.65650 13433 ft 378 kts 138°
2026-05-01 12:01 41.14945 28.68074 14043 ft 380 kts 138°
2026-05-01 12:01 41.13059 28.70561 14502 ft 384 kts 134°
2026-05-01 12:01 41.11454 28.73413 14979 ft 388 kts 124°
2026-05-01 12:01 41.09979 28.76448 15420 ft 393 kts 125°
2026-05-01 12:02 41.08488 28.79501 15839 ft 398 kts 125°
2026-05-01 12:02 41.06976 28.82584 16350 ft 399 kts 126°
2026-05-01 12:02 41.05451 28.85673 16875 ft 401 kts 125°
2026-05-01 12:02 41.03913 28.88778 17357 ft 404 kts 126°
2026-05-01 12:03 41.02338 28.91881 17792 ft 407 kts 129°
2026-05-01 12:03 41.00468 28.94687 18229 ft 407 kts 139°
2026-05-01 12:03 40.98438 28.97316 18636 ft 409 kts 139°
2026-05-01 12:03 40.96396 28.99962 19019 ft 412 kts 139°
2026-05-01 12:04 40.94346 29.02622 19434 ft 415 kts 139°
2026-05-01 12:04 40.92283 29.05303 19896 ft 416 kts 139°
2026-05-01 12:04 40.90213 29.07992 20279 ft 418 kts 139°
2026-05-01 12:04 40.88130 29.10699 20682 ft 421 kts 139°
2026-05-01 12:05 40.86157 29.13578 21049 ft 427 kts 130°
2026-05-01 12:05 40.83401 29.20626 21813 ft 440 kts 109°
2026-05-01 12:05 40.82613 29.24550 22209 ft 444 kts 107°
2026-05-01 12:06 40.81850 29.28456 22523 ft 447 kts 108°
2026-05-01 12:06 40.81065 29.32433 22882 ft 449 kts 108°
2026-05-01 12:06 40.80267 29.36437 23258 ft 451 kts 108°
2026-05-01 12:06 40.79464 29.40451 23620 ft 454 kts 109°
2026-05-01 12:07 40.78658 29.44486 23951 ft 456 kts 109°
2026-05-01 12:07 40.77844 29.48546 24260 ft 458 kts 109°
2026-05-01 12:07 40.77029 29.52612 24579 ft 460 kts 109°
2026-05-01 12:07 40.76209 29.56695 24878 ft 461 kts 109°
2026-05-01 12:08 40.75383 29.60799 25184 ft 463 kts 110°
2026-05-01 12:08 40.74554 29.64908 25498 ft 464 kts 110°
2026-05-01 12:08 40.73772 29.69049 25794 ft 469 kts 105°
2026-05-01 12:08 40.73389 29.73348 26086 ft 476 kts 96°
2026-05-01 12:09 40.73319 29.77720 26376 ft 478 kts 95°
2026-05-01 12:09 40.73249 29.82109 26670 ft 480 kts 95°
2026-05-01 12:09 40.73173 29.86518 26960 ft 482 kts 96°
2026-05-01 12:09 40.73089 29.90951 27286 ft 484 kts 96°
2026-05-01 12:10 40.72997 29.95395 27567 ft 486 kts 96°
2026-05-01 12:10 40.72734 30.04310 28113 ft 486 kts 101°
2026-05-01 12:10 40.72143 30.08679 28386 ft 481 kts 110°
2026-05-01 12:11 40.70031 30.17008 28931 ft 480 kts 115°
2026-05-01 12:11 40.68928 30.21171 29207 ft 482 kts 115°
2026-05-01 12:11 40.67826 30.25342 29462 ft 483 kts 116°
2026-05-01 12:12 40.66521 30.29376 29770 ft 475 kts 124°
2026-05-01 12:12 40.64825 30.33057 30068 ft 466 kts 133°
2026-05-01 12:12 40.62890 30.36387 30312 ft 463 kts 135°
2026-05-01 12:12 40.60919 30.39729 30592 ft 462 kts 135°
2026-05-01 12:13 40.58947 30.43072 30745 ft 462 kts 135°
2026-05-01 12:13 40.56980 30.46409 30951 ft 462 kts 135°
2026-05-01 12:13 40.55075 30.49822 31157 ft 468 kts 129°
2026-05-01 12:13 40.53534 30.53623 31357 ft 477 kts 119°
2026-05-01 12:14 40.52764 30.56353 31489 ft 483 kts 112°
2026-05-01 12:14 40.51954 30.60676 31667 ft 488 kts 108°
2026-05-01 12:14 40.51201 30.65031 31859 ft 488 kts 109°
2026-05-01 12:14 40.50436 30.69376 32076 ft 488 kts 109°
2026-05-01 12:15 40.49657 30.73714 32290 ft 488 kts 110°
2026-05-01 12:15 40.48786 30.78020 32507 ft 487 kts 112°
2026-05-01 12:15 40.47814 30.82267 32742 ft 485 kts 114°
2026-05-01 12:15 40.46774 30.86484 32964 ft 485 kts 114°
2026-05-01 12:16 40.45707 30.90691 33129 ft 486 kts 114°
2026-05-01 12:16 40.44642 30.94894 33289 ft 487 kts 114°
2026-05-01 12:16 40.43592 30.99125 33486 ft 486 kts 114°
2026-05-01 12:16 40.42573 31.03337 33719 ft 485 kts 113°
2026-05-01 12:17 40.41567 31.07564 33918 ft 485 kts 113°
2026-05-01 12:17 40.40567 31.11798 34084 ft 485 kts 113°
2026-05-01 12:17 40.39566 31.16023 34246 ft 486 kts 113°
2026-05-01 12:17 40.38561 31.20252 34387 ft 486 kts 113°
2026-05-01 12:18 40.37709 31.24550 34502 ft 490 kts 107°
2026-05-01 12:18 40.37003 31.28930 34678 ft 490 kts 107°
2026-05-01 12:18 40.36295 31.33288 34835 ft 489 kts 107°
2026-05-01 12:18 40.35583 31.37649 35010 ft 489 kts 107°
2026-05-01 12:19 40.34154 31.46383 35099 ft 490 kts 107°
2026-05-01 12:19 40.32730 31.55098 35079 ft 488 kts 107°
2026-05-01 12:20 40.31303 31.63795 35078 ft 488 kts 107°
2026-05-01 12:20 40.29863 31.72470 35079 ft 488 kts 107°
2026-05-01 12:21 40.28420 31.81157 35056 ft 487 kts 107°
2026-05-01 12:21 40.26985 31.89768 35066 ft 487 kts 107°
2026-05-01 12:22 40.25370 31.98365 35068 ft 485 kts 110°
2026-05-01 12:22 40.23468 32.06841 35076 ft 485 kts 111°
2026-05-01 12:23 40.21528 32.15283 35072 ft 484 kts 111°
2026-05-01 12:23 40.19655 32.23739 35070 ft 484 kts 110°
2026-05-01 12:24 40.17815 32.32195 35075 ft 483 kts 110°
2026-05-01 12:24 40.15976 32.40648 35063 ft 482 kts 110°
2026-05-01 12:25 40.13192 32.53254 35072 ft 481 kts 111°
2026-05-01 12:26 40.11339 32.61592 35067 ft 481 kts 111°
2026-05-01 12:26 40.08536 32.74152 35048 ft 479 kts 111°
2026-05-01 12:27 40.04173 32.85524 35024 ft 460 kts 135°
2026-05-01 12:28 39.98074 32.95190 34985 ft 460 kts 135°
2026-05-01 12:29 39.91995 33.04874 35004 ft 460 kts 135°
2026-05-01 12:29 39.85906 33.14531 34997 ft 460 kts 135°
2026-05-01 12:30 39.79810 33.24147 34990 ft 458 kts 135°
2026-05-01 12:31 39.75751 33.30532 34985 ft 458 kts 135°
2026-05-01 12:31 39.71700 33.36915 34984 ft 457 kts 135°
2026-05-01 12:32 39.67645 33.43273 34971 ft 457 kts 135°
2026-05-01 12:32 39.61565 33.52780 34964 ft 456 kts 135°
2026-05-01 12:33 39.57537 33.59065 34964 ft 456 kts 135°
2026-05-01 12:33 39.53537 33.65459 34966 ft 457 kts 134°
2026-05-01 12:34 39.49576 33.71902 34947 ft 457 kts 134°
2026-05-01 12:34 39.45599 33.78328 34950 ft 457 kts 134°
2026-05-01 12:35 39.41554 33.84690 34951 ft 457 kts 135°
2026-05-01 12:35 39.37456 33.90985 34950 ft 457 kts 135°
2026-05-01 12:36 39.33358 33.97265 34926 ft 457 kts 135°
2026-05-01 12:36 39.29266 34.03587 34917 ft 459 kts 135°
2026-05-01 12:37 39.25186 34.09931 34919 ft 459 kts 135°
2026-05-01 12:37 39.21095 34.16280 34901 ft 461 kts 135°
2026-05-01 12:38 39.16981 34.22629 34878 ft 462 kts 135°
2026-05-01 12:38 39.12962 34.29050 34888 ft 467 kts 128°
2026-05-01 12:39 39.09384 34.36029 34891 ft 463 kts 135°
2026-05-01 12:39 39.05222 34.42361 34900 ft 463 kts 135°
2026-05-01 12:40 39.01057 34.48691 34902 ft 464 kts 135°
2026-05-01 12:40 38.96913 34.55064 34922 ft 464 kts 134°
2026-05-01 12:41 38.92786 34.61432 34928 ft 464 kts 134°
2026-05-01 12:41 38.88648 34.67800 34930 ft 464 kts 135°
2026-05-01 12:42 38.84499 34.74140 34901 ft 464 kts 135°
2026-05-01 12:42 38.80372 34.80439 34897 ft 464 kts 134°
2026-05-01 12:43 38.76224 34.86766 34899 ft 464 kts 134°
2026-05-01 12:43 38.72075 34.93088 34904 ft 464 kts 134°
2026-05-01 12:44 38.67912 34.99409 34884 ft 464 kts 134°
2026-05-01 12:45 38.59591 35.12020 34898 ft 463 kts 134°
2026-05-01 12:45 38.55431 35.18307 34896 ft 463 kts 134°
2026-05-01 12:46 38.51264 35.24578 34896 ft 463 kts 135°
2026-05-01 12:46 38.47039 35.30783 34892 ft 462 kts 135°
2026-05-01 12:47 38.42814 35.36905 34883 ft 462 kts 135°
2026-05-01 12:47 38.38570 35.43068 34893 ft 462 kts 135°
2026-05-01 12:48 38.34330 35.49241 34903 ft 463 kts 135°
2026-05-01 12:48 38.30087 35.55410 34920 ft 463 kts 135°
2026-05-01 12:49 38.25839 35.61573 34930 ft 463 kts 135°
2026-05-01 12:49 38.21595 35.67726 34941 ft 462 kts 135°
2026-05-01 12:50 38.17346 35.73868 34940 ft 462 kts 135°
2026-05-01 12:50 38.13101 35.79982 34763 ft 460 kts 136°
2026-05-01 12:51 38.10983 35.83034 34064 ft 462 kts 136°
2026-05-01 12:51 38.08854 35.86098 33194 ft 464 kts 136°
2026-05-01 12:51 38.04575 35.92247 31521 ft 466 kts 135°
2026-05-01 12:52 38.02430 35.95319 30947 ft 462 kts 135°
2026-05-01 12:52 37.98204 36.01366 29836 ft 454 kts 134°
2026-05-01 12:52 37.96116 36.04353 29253 ft 449 kts 135°
2026-05-01 12:53 37.92026 36.10207 28175 ft 439 kts 135°
2026-05-01 12:53 37.90013 36.13082 27631 ft 434 kts 135°
2026-05-01 12:53 37.88019 36.15925 27103 ft 429 kts 135°
2026-05-01 12:54 37.86044 36.18730 26564 ft 425 kts 135°
2026-05-01 12:54 37.82152 36.24255 25526 ft 416 kts 136°
2026-05-01 12:54 37.80242 36.26977 25019 ft 412 kts 136°
2026-05-01 12:55 37.76477 36.32351 24043 ft 405 kts 136°
2026-05-01 12:55 37.74614 36.35004 23558 ft 401 kts 135°
2026-05-01 12:55 37.72769 36.37628 23056 ft 397 kts 136°
2026-05-01 12:56 37.70946 36.40216 22596 ft 392 kts 136°
2026-05-01 12:56 37.69152 36.42756 22140 ft 383 kts 136°
2026-05-01 12:56 37.67393 36.45247 21718 ft 377 kts 135°
2026-05-01 12:56 37.65687 36.47667 21303 ft 372 kts 136°
2026-05-01 12:57 37.63980 36.50089 20880 ft 367 kts 136°
2026-05-01 12:57 37.60607 36.54856 20014 ft 362 kts 135°
2026-05-01 12:57 37.58936 36.57212 19580 ft 359 kts 135°
2026-05-01 12:58 37.57273 36.59557 19130 ft 357 kts 135°
2026-05-01 12:58 37.55623 36.61880 18682 ft 354 kts 136°
2026-05-01 12:58 37.53988 36.64183 18227 ft 351 kts 136°
2026-05-01 12:59 37.50760 36.68730 17274 ft 345 kts 135°
2026-05-01 12:59 37.49166 36.70982 16811 ft 342 kts 135°
2026-05-01 12:59 37.46032 36.75458 15907 ft 339 kts 135°
2026-05-01 13:00 37.42943 36.79881 14993 ft 334 kts 135°
2026-05-01 13:00 37.41416 36.82062 14559 ft 331 kts 135°
2026-05-01 13:01 37.38391 36.86372 13656 ft 326 kts 135°
2026-05-01 13:01 37.37400 36.87783 13360 ft 325 kts 135°
2026-05-01 13:01 37.34435 36.92005 12476 ft 320 kts 135°
2026-05-01 13:02 37.32968 36.94094 12039 ft 317 kts 135°
2026-05-01 13:07 37.00165 37.24397 5569 ft 229 kts 129°
2026-05-01 13:07 36.99443 37.26156 5351 ft 228 kts 110°
2026-05-01 13:07 36.99041 37.28056 5191 ft 224 kts 107°
2026-05-01 13:08 36.98651 37.29916 5019 ft 221 kts 108°
2026-05-01 13:08 36.98274 37.31692 4844 ft 205 kts 109°
2026-05-01 13:08 36.97924 37.33340 4699 ft 187 kts 108°
2026-05-01 13:08 36.97610 37.34825 4531 ft 169 kts 109°
2026-05-01 13:09 36.97311 37.36219 4231 ft 162 kts 110°
2026-05-01 13:09 36.97024 37.37554 3972 ft 157 kts 108°
2026-05-01 13:09 36.96747 37.38847 3761 ft 151 kts 112°
2026-05-01 13:09 36.96473 37.40124 3509 ft 153 kts 109°
2026-05-01 13:10 36.96197 37.41405 3261 ft 152 kts 106°
2026-05-01 13:10 36.95925 37.42672 3031 ft 151 kts 109°
2026-05-01 13:10 36.95652 37.43935 2838 ft 152 kts 106°
2026-05-01 13:10 36.95376 37.45195 2572 ft 148 kts 109°
2026-05-01 13:11 36.95123 37.46434 2317 ft 145 kts 112°
2026-05-01 13:11 36.94874 37.47525 2280 ft 98 kts 104°
2026-05-01 13:11 36.94763 37.48056 2281 ft 49 kts 103°
2026-05-01 13:11 36.94680 37.48440 2280 ft 41 kts 105°
2026-05-01 13:12 36.94612 37.48715 2279 ft 31 kts 116°
2026-05-01 13:12 36.94499 37.48892 2283 ft 22 kts 137°
2026-05-01 13:12 36.94414 37.48910 2287 ft 12 kts 248°
2026-05-01 13:12 36.94425 37.48811 2286 ft 11 kts 285°
2026-05-01 13:13 36.94444 37.48718 2293 ft 11 kts 285°
2026-05-01 13:13 36.94462 37.48633 2290 ft 9 kts 285°
2026-05-01 13:13 36.94478 37.48559 2286 ft 8 kts 285°
2026-05-01 13:13 36.94492 37.48495 2289 ft 7 kts 285°
2026-05-01 13:14 36.94503 37.48441 2288 ft 6 kts 285°
2026-05-01 13:14 36.94515 37.48389 2285 ft 6 kts 285°
2026-05-01 13:14 36.94526 37.48336 2287 ft 6 kts 285°
2026-05-01 13:14 36.94537 37.48282 2292 ft 7 kts 285°
2026-05-01 13:15 36.94549 37.48225 2288 ft 7 kts 285°
2026-05-01 13:15 36.94561 37.48170 2285 ft 6 kts 285°
2026-05-01 13:15 36.94571 37.48123 2286 ft 5 kts 285°
2026-05-01 13:15 36.94579 37.48084 2289 ft 4 kts 285°
2026-05-01 13:16 36.94586 37.48052 2285 ft 3 kts 285°
2026-05-01 13:16 36.94591 37.48028 2289 ft 2 kts 285°
2026-05-01 13:16 36.94596 37.48008 2286 ft 2 kts 285°
2026-05-01 13:17 36.94611 37.47937 2287 ft 4 kts 285°
2026-05-01 13:17 36.94619 37.47902 2288 ft 5 kts 285°
2026-05-01 13:18 36.94627 37.47830 2286 ft 4 kts 253°
2026-05-01 13:18 36.94613 37.47807 2284 ft 3 kts 225°
2026-05-01 13:18 36.94598 37.47786 2296 ft 5 kts 234°
2026-05-01 13:18 36.94594 37.47744 2290 ft 5 kts 277°
2026-05-01 13:19 36.94594 37.47704 2288 ft 5 kts 261°
2026-05-01 13:19 36.94576 37.47672 2292 ft 4 kts 214°
2026-05-01 13:19 36.94544 37.47665 2288 ft 1 kts 187°
2026-05-01 13:20 36.94536 37.47663 2289 ft 1 kts 190°
2026-05-01 13:20 36.94533 37.47662 2289 ft 0 kts 191°